Regional Weather Roundup
Issued by NWS

Home | Current Version | Previous Version | Graphics & Text | Print | Product List | Glossary On
Versions: 1 2 3 4 5 6 7 8 9 10 11 12 13 14 15 16 17 18 19 20 21 22 23 24 25 26 27 28 29 30 31 32 33 34 35 36 37 38 39 40 41 42 43 44 45 46 47 48 49 50
000
ASUS44 KMEG 050310
RWRTN
TENNESSEE HOURLY STATE WEATHER ROUNDUP
NATIONAL WEATHER SERVICE MEMPHIS TN
1000 PM CDT SAT JUL 04 2015

TNZ002-004-019-021-049-052-054-088>092-050400-
WEST TENNESSEE

CITY           SKY/WX    TMP DP  RH WIND       PRES   REMARKS
MEMPHIS INTL   CLOUDY    76  69  79 CALM      30.02R
NWS MEMPHIS      N/A     73 N/A N/A MISG        N/A
JACKSON        CLOUDY    71  69  93 CALM      30.00S
DYERSBURG        N/A    N/A N/A N/A MISG        N/A
PARIS          PTCLDY    70  68  94 CALM      30.02R
LEXINGTON      CLOUDY    72  68  88 SW7       30.01R
$$

TNZ008-025-027-028-033-062-065-066-050400-
NORTH MIDDLE TENNESSEE

CITY           SKY/WX    TMP DP  RH WIND       PRES   REMARKS
NASHVILLE      LGT RAIN  70  70 100 CALM      30.03R
CLARKSVILLE    CLOUDY    72  69  90 CALM      30.00R FOG
SMYRNA         LGT RAIN  68  67  96 CALM      30.04R FOG
COOKEVILLE     CLOUDY    73  72  94 SW8       30.03R
CROSSVILLE     LGT RAIN  72  67  84 S3        30.08R
$$

TNZ061-075-076-078-094-096-097-050400-
SOUTH MIDDLE TENNESSEE

CITY           SKY/WX    TMP DP  RH WIND       PRES   REMARKS
FAYETTEVILLE   MOCLDY    70  70 100 SE8       30.04R
TULLAHOMA      MOCLDY    68  64  88 CALM      30.04S
WINCHESTER     MOCLDY    72  70  94 S5        30.04R
MCMINNVILLE    CLOUDY    70  70 100 W13       30.05R
COLUMBIA       CLOUDY    70  70 100 S6        30.01R
SHELBYVILLE    CLOUDY    72  72 100 SE3         N/A
$$

TNZ017-018-042-046-047-050400-
NORTHEAST TENNESSEE

CITY           SKY/WX    TMP DP  RH WIND       PRES   REMARKS
TRI CITIES     CLOUDY    70  67  90 CALM      30.10R
ELIZABETHTON   MOCLDY    66  66 100 CALM      30.11R FOG
$$

TNZ012-013-036-069-073-074-050400-
CENTRAL EAST TENNESSEE

CITY           SKY/WX    TMP DP  RH WIND       PRES   REMARKS
KNOXVILLE      CLOUDY    73  68  84 CALM      30.04R
OAK RIDGE      CLOUDY    73  70  90 CALM      30.06R
GATLINBURG     PTCLDY    70  66  88 CALM      30.06R
MORRISTOWN     MOCLDY    70  70 100 CALM      30.09S
$$

TNZ083-085-099-050400-
SOUTHEAST TENNESSEE

CITY           SKY/WX    TMP DP  RH WIND       PRES   REMARKS
CHATTANOOGA    CLOUDY    75  71  87 N3        30.01S
$$

SKY/WX REPORTED AS FAIR MEANS FEW OR NO CLOUDS BELOW
12 THOUSAND FEET.




USA.gov is the U.S. government's official web portal to all federal, state and local government web resources and services.